Time,TemperatureF,DewpointF,PressureIn,WindDirection,WindDirectionDegrees,WindSpeedMPH,WindSpeedGustMPH,Humidity,HourlyPrecipIn,Conditions,Clouds,dailyrainin,SoftwareType,DateUTC
2013-03-05 00:01:00,55.0,39.0,29.87,South,186,6.0,15.0,55,0.00,,,0.00,,2013-03-05 06:01:00,
2013-03-05 00:11:00,55.0,39.0,29.87,South,186,6.0,15.0,55,0.00,,,0.00,,2013-03-05 06:11:00,
2013-03-05 00:22:00,55.0,39.0,29.87,South,184,7.0,13.0,55,0.00,,,0.00,,2013-03-05 06:22:00,
2013-03-05 00:31:00,54.0,39.0,29.86,SSW,196,6.0,14.0,57,0.00,,,0.00,,2013-03-05 06:31:00,
2013-03-05 00:41:00,54.0,39.0,29.86,SSW,196,6.0,14.0,57,0.00,,,0.00,,2013-03-05 06:41:00,
2013-03-05 00:52:00,54.0,40.0,29.86,SW,224,6.0,14.0,59,0.00,,,0.00,,2013-03-05 06:52:00,
2013-03-05 01:01:00,54.0,41.0,29.86,South,189,6.0,14.0,62,0.00,,,0.00,,2013-03-05 07:01:00,
2013-03-05 01:11:00,54.0,41.0,29.86,South,189,6.0,14.0,62,0.00,,,0.00,,2013-03-05 07:11:00,
2013-03-05 01:21:00,54.0,42.0,29.86,SSW,206,8.0,12.0,64,0.00,,,0.00,,2013-03-05 07:21:00,
2013-03-05 01:31:00,54.0,43.0,29.86,SSW,203,8.0,12.0,66,0.00,,,0.00,,2013-03-05 07:31:00,
2013-03-05 01:41:00,54.0,43.0,29.86,SSW,203,8.0,12.0,66,0.00,,,0.00,,2013-03-05 07:41:00,
2013-03-05 01:52:00,54.0,44.0,29.86,SE,143,7.0,14.0,68,0.00,,,0.00,,2013-03-05 07:52:00,
2013-03-05 02:02:00,54.0,44.0,29.86,South,185,6.0,17.0,69,0.00,,,0.00,,2013-03-05 08:02:00,
2013-03-05 02:11:00,54.0,44.0,29.86,South,185,6.0,17.0,69,0.00,,,0.00,,2013-03-05 08:11:00,
2013-03-05 02:21:00,54.0,45.0,29.85,SW,230,9.0,18.0,71,0.00,,,0.00,,2013-03-05 08:21:00,
2013-03-05 02:31:00,54.0,45.0,29.85,SSE,160,6.0,14.0,72,0.00,,,0.00,,2013-03-05 08:31:00,
2013-03-05 02:41:00,54.0,45.0,29.85,SSE,160,6.0,14.0,72,0.00,,,0.00,,2013-03-05 08:41:00,
2013-03-05 02:52:00,54.0,45.0,29.84,SSW,195,9.0,16.0,72,0.00,,,0.00,,2013-03-05 08:52:00,
2013-03-05 03:01:00,54.0,46.0,29.84,South,185,6.0,13.0,73,0.00,,,0.00,,2013-03-05 09:01:00,
2013-03-05 03:11:00,54.0,46.0,29.83,SW,215,6.0,11.0,74,0.00,,,0.00,,2013-03-05 09:11:00,
2013-03-05 03:21:00,54.0,46.0,29.83,SW,215,6.0,11.0,74,0.00,,,0.00,,2013-03-05 09:21:00,
2013-03-05 03:31:00,54.0,46.0,29.84,SW,217,6.0,11.0,75,0.00,,,0.00,,2013-03-05 09:31:00,
2013-03-05 03:42:00,54.0,46.0,29.84,SW,217,6.0,11.0,75,0.00,,,0.00,,2013-03-05 09:42:00,
2013-03-05 03:52:00,55.0,47.0,29.84,WSW,237,6.0,12.0,75,0.00,,,0.00,,2013-03-05 09:52:00,
2013-03-05 04:01:00,55.0,48.0,29.84,SW,236,8.0,12.0,77,0.00,,,0.00,,2013-03-05 10:01:00,
2013-03-05 04:11:00,55.0,48.0,29.84,SW,236,8.0,12.0,77,0.00,,,0.00,,2013-03-05 10:11:00,
2013-03-05 04:21:00,54.0,48.0,29.83,SSW,192,6.0,12.0,81,0.01,,,0.01,,2013-03-05 10:21:00,
2013-03-05 04:32:00,54.0,48.0,29.84,SW,216,7.0,16.0,80,0.01,,,0.01,,2013-03-05 10:32:00,
2013-03-05 04:42:00,54.0,48.0,29.84,SW,216,7.0,16.0,80,0.01,,,0.01,,2013-03-05 10:42:00,
2013-03-05 04:52:00,55.0,49.0,29.83,SW,223,6.0,18.0,80,0.01,,,0.01,,2013-03-05 10:52:00,
2013-03-05 05:01:00,55.0,49.0,29.84,SW,223,6.0,13.0,80,0.01,,,0.01,,2013-03-05 11:01:00,
2013-03-05 05:11:00,55.0,49.0,29.83,SW,220,8.0,14.0,79,0.00,,,0.01,,2013-03-05 11:11:00,
2013-03-05 05:22:00,55.0,49.0,29.83,SW,220,8.0,14.0,79,0.00,,,0.01,,2013-03-05 11:22:00,
2013-03-05 05:32:00,55.0,49.0,29.83,SW,233,7.0,15.0,80,0.00,,,0.01,,2013-03-05 11:32:00,
2013-03-05 05:42:00,55.0,49.0,29.83,SW,233,7.0,15.0,80,0.00,,,0.01,,2013-03-05 11:42:00,
2013-03-05 05:52:00,55.0,49.0,29.83,SSW,209,4.0,18.0,80,0.00,,,0.01,,2013-03-05 11:52:00,
2013-03-05 06:02:00,55.0,49.0,29.83,WSW,239,4.0,12.0,80,0.00,,,0.01,,2013-03-05 12:02:00,
2013-03-05 06:11:00,55.0,49.0,29.83,WSW,239,4.0,12.0,80,0.00,,,0.01,,2013-03-05 12:11:00,
2013-03-05 06:22:00,55.0,49.0,29.84,SSW,196,6.0,13.0,80,0.00,,,0.01,,2013-03-05 12:22:00,
2013-03-05 06:32:00,56.0,50.0,29.83,SSW,192,3.0,12.0,81,0.00,,,0.01,,2013-03-05 12:32:00,
2013-03-05 06:42:00,56.0,50.0,29.83,SSW,192,3.0,12.0,81,0.00,,,0.01,,2013-03-05 12:42:00,
2013-03-05 06:52:00,55.0,50.0,29.83,SW,229,7.0,12.0,82,0.00,,,0.01,,2013-03-05 12:52:00,
2013-03-05 07:02:00,56.0,51.0,29.82,SSW,212,7.0,10.0,82,0.00,,,0.01,,2013-03-05 13:02:00,
2013-03-05 07:11:00,56.0,51.0,29.82,SSW,212,7.0,10.0,82,0.00,,,0.01,,2013-03-05 13:11:00,
2013-03-05 07:21:00,56.0,51.0,29.82,SSW,212,4.0,14.0,82,0.00,,,0.01,,2013-03-05 13:21:00,
2013-03-05 07:32:00,56.0,51.0,29.82,WSW,240,6.0,12.0,83,0.01,,,0.02,,2013-03-05 13:32:00,
2013-03-05 07:42:00,56.0,51.0,29.82,WSW,240,6.0,12.0,83,0.01,,,0.02,,2013-03-05 13:42:00,
2013-03-05 07:52:00,56.0,51.0,29.81,SW,223,9.0,12.0,84,0.01,,,0.02,,2013-03-05 13:52:00,
2013-03-05 08:02:00,56.0,51.0,29.80,SW,230,6.0,16.0,84,0.01,,,0.02,,2013-03-05 14:02:00,
2013-03-05 08:11:00,56.0,51.0,29.80,SW,230,6.0,16.0,84,0.01,,,0.02,,2013-03-05 14:11:00,
2013-03-05 08:21:00,57.0,52.0,29.79,SSW,202,8.0,14.0,84,0.01,,,0.02,,2013-03-05 14:21:00,
2013-03-05 08:32:00,57.0,52.0,29.80,SW,234,10.0,18.0,83,0.00,,,0.02,,2013-03-05 14:32:00,
2013-03-05 08:42:00,57.0,52.0,29.80,SW,234,10.0,18.0,83,0.00,,,0.02,,2013-03-05 14:42:00,
2013-03-05 08:52:00,57.0,52.0,29.79,WSW,243,9.0,20.0,82,0.00,,,0.02,,2013-03-05 14:52:00,
2013-03-05 09:01:00,58.0,53.0,29.77,WSW,251,13.0,19.0,82,0.00,,,0.02,,2013-03-05 15:01:00,
2013-03-05 09:11:00,58.0,53.0,29.77,WSW,251,13.0,19.0,82,0.00,,,0.02,,2013-03-05 15:11:00,
2013-03-05 09:21:00,58.0,53.0,29.77,WSW,241,9.0,24.0,83,0.00,,,0.02,,2013-03-05 15:21:00,
2013-03-05 09:32:00,57.0,53.0,29.78,SW,222,14.0,21.0,85,0.01,,,0.03,,2013-03-05 15:32:00,
2013-03-05 09:42:00,57.0,53.0,29.78,SW,222,14.0,21.0,85,0.01,,,0.03,,2013-03-05 15:42:00,
2013-03-05 09:52:00,57.0,53.0,29.77,WSW,237,9.0,21.0,86,0.01,,,0.03,,2013-03-05 15:52:00,
2013-03-05 10:01:00,57.0,53.0,29.75,WSW,237,13.0,24.0,86,0.01,,,0.03,,2013-03-05 16:01:00,
2013-03-05 10:11:00,57.0,53.0,29.75,WSW,237,13.0,24.0,86,0.01,,,0.03,,2013-03-05 16:11:00,
2013-03-05 10:21:00,58.0,54.0,29.75,WSW,237,14.0,21.0,86,0.02,,,0.04,,2013-03-05 16:21:00,
2013-03-05 10:32:00,57.0,53.0,29.76,SW,236,16.0,24.0,87,0.02,,,0.05,,2013-03-05 16:32:00,
2013-03-05 10:42:00,57.0,53.0,29.76,SW,236,16.0,24.0,87,0.02,,,0.05,,2013-03-05 16:42:00,
2013-03-05 10:52:00,57.0,54.0,29.75,WSW,239,15.0,21.0,90,0.11,,,0.14,,2013-03-05 16:52:00,
2013-03-05 11:01:00,57.0,54.0,29.72,SW,220,10.0,17.0,91,0.12,,,0.15,,2013-03-05 17:01:00,
2013-03-05 11:11:00,57.0,54.0,29.72,SW,220,10.0,17.0,91,0.12,,,0.15,,2013-03-05 17:11:00,
2013-03-05 11:21:00,57.0,54.0,29.72,WSW,244,14.0,19.0,91,0.14,,,0.18,,2013-03-05 17:21:00,
2013-03-05 11:32:00,57.0,55.0,29.71,SSE,165,11.0,19.0,92,0.19,,,0.24,,2013-03-05 17:32:00,
2013-03-05 11:41:00,57.0,55.0,29.71,SSE,165,11.0,19.0,92,0.19,,,0.24,,2013-03-05 17:41:00,
2013-03-05 11:52:00,57.0,55.0,29.68,SW,227,9.0,18.0,92,0.11,,,0.25,,2013-03-05 17:52:00,
2013-03-05 12:01:00,57.0,55.0,29.68,SW,230,7.0,18.0,92,0.15,,,0.30,,2013-03-05 18:01:00,
2013-03-05 12:11:00,57.0,55.0,29.68,SW,230,7.0,18.0,92,0.15,,,0.30,,2013-03-05 18:11:00,
2013-03-05 12:21:00,57.0,55.0,29.66,WSW,240,12.0,17.0,93,0.18,,,0.36,,2013-03-05 18:21:00,
2013-03-05 12:32:00,57.0,55.0,29.66,WNW,291,2.0,12.0,93,0.16,,,0.40,,2013-03-05 18:32:00,
2013-03-05 12:42:00,57.0,55.0,29.66,WNW,291,2.0,12.0,93,0.16,,,0.40,,2013-03-05 18:42:00,
2013-03-05 12:53:00,57.0,55.0,29.68,West,265,9.0,17.0,94,0.39,,,0.64,,2013-03-05 18:53:00,
2013-03-05 13:01:00,57.0,56.0,29.67,WNW,291,10.0,18.0,95,0.41,,,0.70,,2013-03-05 19:01:00,
2013-03-05 13:11:00,57.0,56.0,29.67,WNW,291,10.0,18.0,95,0.41,,,0.70,,2013-03-05 19:11:00,
2013-03-05 13:21:00,57.0,56.0,29.66,WNW,301,13.0,22.0,95,0.39,,,0.75,,2013-03-05 19:21:00,
2013-03-05 13:32:00,55.0,53.0,29.69,WNW,296,19.0,32.0,92,0.35,,,0.75,,2013-03-05 19:32:00,
2013-03-05 13:42:00,55.0,53.0,29.69,WNW,296,19.0,32.0,92,0.35,,,0.75,,2013-03-05 19:42:00,
2013-03-05 13:52:00,53.0,50.0,29.70,NW,311,16.0,24.0,89,0.12,,,0.76,,2013-03-05 19:52:00,
2013-03-05 14:01:00,52.0,49.0,29.70,NW,322,18.0,28.0,88,0.06,,,0.76,,2013-03-05 20:01:00,
2013-03-05 14:11:00,51.0,47.0,29.72,NW,323,24.0,32.0,86,0.01,,,0.76,,2013-03-05 20:11:00,
2013-03-05 14:21:00,51.0,47.0,29.72,NW,323,24.0,32.0,86,0.01,,,0.76,,2013-03-05 20:21:00,
2013-03-05 14:32:00,50.0,46.0,29.75,NNW,339,17.0,33.0,86,0.01,,,0.76,,2013-03-05 20:32:00,
2013-03-05 14:41:00,50.0,46.0,29.75,NNW,339,17.0,33.0,86,0.01,,,0.76,,2013-03-05 20:41:00,
2013-03-05 14:52:00,48.0,45.0,29.77,NW,320,13.0,32.0,88,0.00,,,0.76,,2013-03-05 20:52:00,
2013-03-05 15:01:00,46.0,41.0,29.78,NW,322,16.0,31.0,84,0.00,,,0.76,,2013-03-05 21:01:00,
2013-03-05 15:11:00,46.0,41.0,29.78,NW,322,16.0,31.0,84,0.00,,,0.76,,2013-03-05 21:11:00,
2013-03-05 15:21:00,45.0,41.0,29.80,NW,311,19.0,26.0,85,0.00,,,0.76,,2013-03-05 21:21:00,
2013-03-05 15:31:00,44.0,40.0,29.82,NNW,337,17.0,28.0,86,0.00,,,0.76,,2013-03-05 21:31:00,
2013-03-05 15:41:00,44.0,40.0,29.82,NNW,337,17.0,28.0,86,0.00,,,0.76,,2013-03-05 21:41:00,
2013-03-05 15:52:00,42.0,38.0,29.84,NW,319,15.0,28.0,87,0.00,,,0.76,,2013-03-05 21:52:00,
2013-03-05 16:01:00,42.0,38.0,29.85,NW,318,16.0,26.0,86,0.00,,,0.76,,2013-03-05 22:01:00,
2013-03-05 16:11:00,42.0,38.0,29.85,NW,318,16.0,26.0,86,0.00,,,0.76,,2013-03-05 22:11:00,
2013-03-05 16:21:00,41.0,35.0,29.87,WNW,294,23.0,33.0,79,0.00,,,0.76,,2013-03-05 22:21:00,
2013-03-05 16:32:00,40.0,33.0,29.88,NW,316,20.0,30.0,77,0.00,,,0.76,,2013-03-05 22:32:00,
2013-03-05 16:41:00,40.0,33.0,29.88,NW,316,20.0,30.0,77,0.00,,,0.76,,2013-03-05 22:41:00,
2013-03-05 16:52:00,40.0,33.0,29.91,NW,323,14.0,25.0,77,0.00,,,0.76,,2013-03-05 22:52:00,
2013-03-05 17:01:00,39.0,32.0,29.92,NW,318,16.0,26.0,76,0.00,,,0.76,,2013-03-05 23:01:00,
2013-03-05 17:11:00,39.0,32.0,29.92,NW,318,16.0,26.0,76,0.00,,,0.76,,2013-03-05 23:11:00,
2013-03-05 17:21:00,39.0,31.0,29.93,WNW,301,12.0,27.0,74,0.00,,,0.76,,2013-03-05 23:21:00,
2013-03-05 17:32:00,39.0,31.0,29.94,NW,311,18.0,26.0,73,0.00,,,0.76,,2013-03-05 23:32:00,
2013-03-05 17:41:00,39.0,31.0,29.94,NW,311,18.0,26.0,73,0.00,,,0.76,,2013-03-05 23:41:00,
2013-03-05 17:52:00,39.0,31.0,29.95,NNW,329,12.0,24.0,72,0.00,,,0.76,,2013-03-05 23:52:00,
2013-03-05 18:01:00,39.0,31.0,29.96,NW,309,12.0,18.0,72,0.00,,,0.76,,2013-03-06 00:01:00,
2013-03-05 18:11:00,39.0,31.0,29.96,NW,309,12.0,18.0,72,0.00,,,0.76,,2013-03-06 00:11:00,
2013-03-05 18:21:00,39.0,31.0,29.96,NW,320,9.0,18.0,72,0.00,,,0.76,,2013-03-06 00:21:00,
2013-03-05 18:32:00,39.0,31.0,29.96,NW,320,9.0,18.0,72,0.00,,,0.76,,2013-03-06 00:32:00,
2013-03-05 18:41:00,39.0,31.0,29.96,NW,320,9.0,18.0,72,0.00,,,0.76,,2013-03-06 00:41:00,
2013-03-05 18:52:00,39.0,31.0,29.97,WNW,299,7.0,13.0,74,0.00,,,0.76,,2013-03-06 00:52:00,
2013-03-05 19:01:00,39.0,31.0,29.97,NW,312,6.0,11.0,74,0.00,,,0.76,,2013-03-06 01:01:00,
2013-03-05 19:11:00,39.0,31.0,29.97,NW,312,6.0,11.0,74,0.00,,,0.76,,2013-03-06 01:11:00,
2013-03-05 19:21:00,39.0,31.0,29.97,NW,313,5.0,8.0,74,0.00,,,0.76,,2013-03-06 01:21:00,
2013-03-05 19:32:00,39.0,32.0,29.97,NW,304,3.0,10.0,75,0.00,,,0.76,,2013-03-06 01:32:00,
2013-03-05 19:41:00,39.0,32.0,29.97,NW,304,3.0,10.0,75,0.00,,,0.76,,2013-03-06 01:41:00,
2013-03-05 19:52:00,39.0,32.0,29.96,NW,309,3.0,6.0,76,0.00,,,0.76,,2013-03-06 01:52:00,
2013-03-05 20:01:00,39.0,32.0,29.96,WNW,296,3.0,7.0,76,0.00,,,0.76,,2013-03-06 02:01:00,
2013-03-05 20:11:00,39.0,32.0,29.96,WNW,296,3.0,7.0,76,0.00,,,0.76,,2013-03-06 02:11:00,
2013-03-05 20:22:00,39.0,32.0,29.96,NW,305,3.0,10.0,76,0.00,,,0.76,,2013-03-06 02:22:00,
2013-03-05 20:31:00,38.0,31.0,29.96,WNW,291,6.0,10.0,76,0.00,,,0.76,,2013-03-06 02:31:00,
2013-03-05 20:41:00,38.0,31.0,29.96,WNW,291,6.0,10.0,76,0.00,,,0.76,,2013-03-06 02:41:00,
2013-03-05 20:52:00,38.0,31.0,29.96,WNW,288,5.0,10.0,76,0.00,,,0.76,,2013-03-06 02:52:00,
2013-03-05 21:01:00,38.0,31.0,29.96,NW,305,7.0,11.0,76,0.00,,,0.76,,2013-03-06 03:01:00,
2013-03-05 21:11:00,38.0,31.0,29.96,NW,305,7.0,11.0,76,0.00,,,0.76,,2013-03-06 03:11:00,
2013-03-05 21:21:00,37.0,30.0,29.96,WNW,295,6.0,9.0,76,0.00,,,0.76,,2013-03-06 03:21:00,
2013-03-05 21:31:00,37.0,30.0,29.96,WNW,302,6.0,11.0,76,0.00,,,0.76,,2013-03-06 03:31:00,
2013-03-05 21:42:00,37.0,30.0,29.96,WNW,302,6.0,11.0,76,0.00,,,0.76,,2013-03-06 03:42:00,
2013-03-05 21:52:00,37.0,30.0,29.96,NW,304,5.0,10.0,76,0.00,,,0.76,,2013-03-06 03:52:00,
2013-03-05 22:02:00,37.0,30.0,29.96,WNW,302,5.0,11.0,76,0.00,,,0.76,,2013-03-06 04:02:00,
2013-03-05 22:11:00,37.0,30.0,29.96,WNW,302,5.0,11.0,76,0.00,,,0.76,,2013-03-06 04:11:00,
2013-03-05 22:21:00,37.0,30.0,29.96,WNW,301,7.0,11.0,76,0.00,,,0.76,,2013-03-06 04:21:00,
2013-03-05 22:32:00,37.0,30.0,29.96,WNW,299,8.0,14.0,75,0.00,,,0.76,,2013-03-06 04:32:00,
2013-03-05 22:41:00,37.0,30.0,29.96,WNW,299,8.0,14.0,75,0.00,,,0.76,,2013-03-06 04:41:00,
2013-03-05 22:52:00,38.0,29.0,29.96,NW,306,10.0,18.0,71,0.00,,,0.76,,2013-03-06 04:52:00,
2013-03-05 23:01:00,38.0,28.0,29.96,NNW,340,15.0,21.0,68,0.00,,,0.76,,2013-03-06 05:01:00,
2013-03-05 23:11:00,33.0,29.0,29.98,NNW,347,9.0,22.0,84,0.00,,,0.76,,2013-03-06 05:11:00,
2013-03-05 23:22:00,33.0,29.0,29.98,NNW,347,9.0,22.0,84,0.00,,,0.76,,2013-03-06 05:22:00,
2013-03-05 23:32:00,34.0,22.0,29.99,NNW,335,15.0,31.0,61,0.00,,,0.76,,2013-03-06 05:32:00,
2013-03-05 23:42:00,34.0,22.0,29.99,NNW,335,15.0,31.0,61,0.00,,,0.76,,2013-03-06 05:42:00,
2013-03-05 23:52:00,35.0,21.0,29.99,NNW,342,17.0,26.0,57,0.00,,,0.76,,2013-03-06 05:52:00,